Weather History for PHNG - February, 2014

Change the Weather History Date:

Wednesday, February 5, 2014

  Actual Average Record
Temperature  
Mean Temperature 74 °F -  
Max Temperature 79 °F 75 °F 81 °F (2003)
Min Temperature 68 °F 66 °F 61 °F (2011)
Cooling Degree Days 8    
Growing Degree Days 24 (Base 50)    
Moisture  
Dew Point 65 °F    
Average Humidity 75    
Maximum Humidity 93    
Minimum Humidity 61    
Precipitation  
Precipitation 0.03 in - - ()
Sea Level Pressure  
Sea Level Pressure 29.89 in    
Wind  
Wind Speed 4 mph (SW)    
Max Wind Speed 16 mph    
Max Gust Speed 28 mph    
Visibility 8 miles    
Events Rain    
Averages and records for this station are not official NWS values.
T = Trace of Precipitation, MM = Missing Value Source: NWS Daily Summary

Daily Weather History Graph

Daily Weather History Graph

Search for Another Location

Airport or City:

Trip Planner

Search our weather history database for the weather conditions in past years. The results will help you decide how hot, cold, wet, or windy it might be!

Date:

Astronomy

Feb. 05, 2014 Rise Set
Actual Time 7:06 AM HST 6:23 PM HST
Civil Twilight 6:43 AM HST 6:46 PM HST
Nautical Twilight 6:17 AM HST 7:13 PM HST
Astronomical Twilight 5:50 AM HST 7:39 PM HST
Moon 11:22 AM HST (2/5) No Moon Set
Length of Visible Light 12h 02m
Length of Day
11h 16m
Waxing Crescent, 41% of the Moon is Illuminated
Feb 5
Waxing Crescent
Feb 6
First Quarter
Feb 14
Full
Feb 22
Last Quarter
Feb 28
New

Hourly Weather History & Observations

Time (HST) Temp. Dew Point Humidity Pressure Visibility Wind Dir Wind Speed Gust Speed Precip Events Conditions
12:57 AM 69.8 °F 64.9 °F 84% 29.88 in 5.0 mi Calm Calm - 0.01 in Rain Light Rain
1:57 AM 68.0 °F 66.0 °F 93% 29.87 in 9.0 mi Calm Calm - 0.00 in   Mostly Cloudy
2:04 AM 68.0 °F 64.4 °F 88% 29.87 in 6.2 mi Calm Calm - N/A   Clear
2:57 AM 68.0 °F 64.0 °F 87% 29.85 in 9.0 mi Calm Calm - N/A   Clear
3:57 AM 68.0 °F 64.0 °F 87% 29.85 in 9.0 mi Calm Calm - N/A   Scattered Clouds
4:57 AM 68.0 °F 64.9 °F 90% 29.84 in 9.0 mi Calm Calm - N/A   Mostly Cloudy
5:48 AM 68.0 °F 64.4 °F 88% 29.85 in 6.0 mi Calm Calm - 0.00 in Rain Light Rain
5:57 AM 68.0 °F 64.9 °F 90% 29.84 in 10.0 mi Variable 3.5 mph - 0.00 in   Scattered Clouds
6:57 AM 68.0 °F 66.0 °F 93% 29.87 in 10.0 mi SSW 4.6 mph - 0.01 in   Mostly Cloudy
7:57 AM 74.1 °F 66.0 °F 76% 29.87 in 10.0 mi SSW 12.7 mph - N/A   Scattered Clouds
8:57 AM 74.1 °F 66.9 °F 78% 29.88 in 9.0 mi SSW 11.5 mph 23.0 mph N/A   Scattered Clouds
9:57 AM 77.0 °F 66.0 °F 69% 29.89 in 8.0 mi SSW 15.0 mph 27.6 mph 0.00 in   Mostly Cloudy
10:57 AM 77.7 °F 64.0 °F 63% 29.88 in 8.0 mi SSW 12.7 mph 25.3 mph N/A   Mostly Cloudy
11:57 AM 77.9 °F 64.0 °F 62% 29.86 in 9.0 mi SSW 16.1 mph 26.5 mph N/A   Mostly Cloudy
12:57 PM 77.9 °F 64.0 °F 62% 29.85 in 10.0 mi South 10.4 mph 17.3 mph N/A   Scattered Clouds
1:57 PM 78.1 °F 64.0 °F 62% 29.84 in 9.0 mi South 8.1 mph 17.3 mph N/A   Mostly Cloudy
2:57 PM 79.2 °F 66.0 °F 64% 29.83 in 8.0 mi SSW 8.1 mph - N/A   Partly Cloudy
3:57 PM 78.4 °F 64.0 °F 61% 29.84 in 10.0 mi South 9.2 mph - 0.00 in   Scattered Clouds
4:57 PM 78.8 °F 64.9 °F 62% 29.86 in 10.0 mi SSW 4.6 mph - N/A   Mostly Cloudy
5:57 PM 78.8 °F 64.9 °F 62% 29.88 in 10.0 mi Calm Calm - N/A   Partly Cloudy
6:57 PM 75.2 °F 64.9 °F 70% 29.90 in 10.0 mi Calm Calm - N/A   Overcast
7:57 PM 75.2 °F 64.9 °F 70% 29.91 in 10.0 mi Calm Calm - N/A   Overcast
8:57 PM 74.3 °F 64.9 °F 72% 29.94 in 7.0 mi North 8.1 mph - N/A   Overcast
9:57 PM 74.3 °F 64.9 °F 72% 29.95 in 7.0 mi North 6.9 mph - 0.00 in   Mostly Cloudy
10:01 PM 75.2 °F 66.2 °F 73% 29.97 in 6.2 mi North 6.9 mph - N/A   Mostly Cloudy
10:57 PM 74.3 °F 66.0 °F 75% 29.96 in 8.0 mi North 5.8 mph - 0.00 in   Overcast
11:04 PM 73.4 °F 66.2 °F 78% 29.97 in 6.2 mi NNE 6.9 mph - N/A   Overcast
11:29 PM 73.4 °F 66.2 °F 78% 29.96 in 6.0 mi NNE 5.8 mph - 0.01 in Rain Light Rain
11:57 PM 72.5 °F 66.0 °F 80% 29.96 in 6.0 mi NNE 4.6 mph - 0.01 in   Haze